RH
77 68 82 75 71 72 79 75 77 86 91 93 93 74 75 70 78 84 85 81 85 91 95 95 95 95 94 93 93 96 95 78 82 76 88 89 87 89 94 87 92 97 95
73 66 81 76 70 69 77 75 76 78 88 87 92 87 87 85 82 94 95 95 94 96 96 96 97 97 92 90 93 93 80 75 80 82 86 88 89 85 86 87 93 95 98
71 75 81 77 72 69 75 74 73 76 78 83 87 87 93 94 95 95 96 89 92 94 94 96 97 97 94 98 98 74 73 80 80 83 84 84 86 83 84 89 88 93 93
73 78 92 81 74 69 71 73 72 73 75 80 82 83 86 94 93 95 94 86 90 95 96 96 94 92 94 93 73 69 77 82 80 81 77 87 97 96 97 96 96 92 93
71 75 92 83 78 72 71 72 71 71 73 76 81 82 84 87 95 95 87 82 86 85 89 95 86 86 90 92 65 61 73 76 76 77 75 81 94 96 97 97 94 92 92
68 73 80 83 83 75 73 72 72 74 76 77 80 82 82 84 87 87 88 81 84 84 91 96 78 72 74 73 64 64 77 76 75 71 81 82 94 97 99 96 95 93 91
65 69 76 73 85 78 75 76 77 77 78 81 82 84 85 86 84 91 86 77 82 80 79 79 72 66 67 70 72 82 78 78 63 74 76 85 94 98 96 94 92 92 84
62 69 77 65 84 75 79 80 81 82 83 85 87 86 87 85 86 87 84 80 80 80 86 84 71 57 57 62 66 75 81 85 77 77 82 89 93 96 92 92 91 90 81
63 72 79 77 81 82 80 82 85 85 88 89 88 88 88 87 88 86 85 81 75 80 78 79 73 58 51 53 54 66 72 82 79 78 84 92 94 92 91 91 95 86 85
62 77 74 84 89 91 89 86 87 89 88 88 87 87 88 87 83 87 87 78 75 70 68 72 73 64 53 49 49 49 65 80 78 76 80 91 93 89 93 94 90 89 87
70 71 76 82 91 92 89 92 87 88 87 83 82 81 80 80 84 80 77 76 76 75 66 72 70 62 53 51 45 46 59 54 66 74 74 84 95 91 94 94 91 88 90
76 76 72 84 84 92 96 92 92 88 84 76 73 72 73 80 82 78 80 76 76 71 64 66 70 63 54 54 45 43 49 50 58 69 69 78 94 94 96 94 91 88 96
75 75 76 78 78 87 92 93 94 84 75 77 79 75 68 75 72 80 76 83 77 74 68 66 67 62 64 58 56 57 51 49 51 67 70 74 85 87 95 91 89 92 92
79 75 77 76 79 80 87 89 89 83 78 77 74 69 64 63 72 74 77 82 73 78 72 68 66 59 64 59 56 54 52 51 51 64 65 66 84 90 93 90 90 94 94
82 78 77 76 75 78 85 89 86 83 79 74 68 67 62 60 65 75 67 76 66 71 70 73 60 61 58 56 55 52 51 54 55 63 64 73 89 92 92 90 86 95 97
70 74 75 78 80 81 86 86 85 81 77 68 65 61 62 61 67 62 64 61 66 60 62 64 63 59 55 54 52 53 56 57 64 76 62 89 90 88 87 86 87 96 98
68 70 73 74 81 83 87 85 83 80 75 66 65 63 63 64 65 60 63 68 70 61 57 57 57 56 55 54 54 58 60 72 83 82 69 94 92 87 81 88 89 93 99
59 71 74 76 77 84 86 90 88 82 74 67 66 66 65 62 63 66 64 77 81 68 61 54 55 56 55 54 56 57 60 72 82 85 88 93 93 88 84 87 90 97 98
51 69 70 77 80 84 93 95 89 85 80 69 67 67 66 63 63 66 65 85 80 74 65 59 57 58 56 56 55 59 59 70 78 97 100 93 92 87 89 82 90 91 95
47 65 71 71 82 85 96 97 92 88 83 73 71 70 67 64 64 67 70 87 81 76 67 62 59 61 60 59 60 63 65 68 82 83 94 92 82 85 84 84 81 92 92
46 64 85 76 82 85 91 97 100 92 85 79 76 72 70 68 65 70 78 81 76 77 68 65 63 63 60 63 69 80 84 79 78 82 86 92 83 82 83 77 82 86 88
60 62 64 63 77 84 84 98 100 98 95 85 80 78 73 71 68 68 84 83 87 82 74 72 64 66 72 70 77 76 93 88 83 83 91 92 90 82 79 81 83 84 88
72 76 79 80 79 78 98 96 99 100 100 100 95 85 80 76 72 69 71 83 85 82 79 76 73 67 76 82 68 65 89 90 87 88 92 91 90 90 80 76 82 86 83
76 80 83 86 86 86 86 99 95 93 89 95 97 93 83 82 77 73 70 69 78 79 79 75 72 76 77 85 73 64 65 63 83 98 91 95 97 93 90 82 80 88 85
78 80 84 87 84 90 89 99 95 96 86 90 99 100 94 92 88 85 76 71 75 78 77 75 70 77 77 86 78 77 67 60 60 74 91 100 99 92 97 90 85 86 86
82 83 86 88 92 89 93 95 100 92 87 86 93 100 99 100 94 91 91 80 76 79 78 78 68 75 79 82 79 72 66 62 64 63 77 84 96 96 87 93 88 91 86
Wind_Speed
22 26 24 23 22 20 22 20 20 20 19 19 18 18 18 19 18 18 17 18 21 19 19 19 20 20 19 18 19 18 19 21 22 23 22 23 24 24 24 25 28 27 26
25 25 25 23 22 20 22 20 20 20 19 18 18 18 18 18 17 17 17 17 16 17 17 18 19 19 19 19 19 18 21 20 22 22 22 22 23 24 24 26 26 25 24
22 25 26 24 22 21 22 21 20 20 19 18 18 19 18 17 17 16 15 15 16 16 17 16 17 17 19 19 19 22 22 23 23 21 18 22 21 23 24 24 23 23 22
23 23 23 23 23 21 21 21 20 19 18 18 18 18 19 18 17 16 15 16 16 17 17 16 16 16 16 17 20 21 19 18 19 18 17 18 18 21 23 23 22 21 21
24 21 21 23 23 22 20 21 20 19 18 17 18 18 19 18 16 15 16 17 16 15 15 16 14 14 14 14 17 18 13 12 11 18 17 16 19 20 22 21 20 19 20
23 22 20 23 21 21 20 20 20 19 18 16 18 18 17 17 15 16 17 17 18 16 15 14 14 14 14 15 16 15 12 17 17 15 16 16 21 20 21 20 19 19 19
21 23 20 22 21 21 21 20 19 19 18 18 18 17 16 15 16 17 18 16 16 14 13 13 13 13 13 14 16 15 12 14 14 14 14 19 19 20 19 18 18 18 18
17 22 22 22 19 21 20 20 19 18 17 16 15 15 15 15 16 18 18 17 15 13 12 12 12 12 12 12 14 15 16 13 13 14 15 18 19 19 18 17 17 18 17
15 21 21 22 20 19 19 18 18 19 17 17 16 16 15 15 18 18 17 16 13 13 12 12 12 11 11 11 12 14 13 14 13 14 16 18 18 18 17 17 18 17 17
16 20 18 23 21 20 20 21 21 20 20 20 18 17 16 15 15 17 15 13 13 12 12 12 12 11 10 10 11 14 13 14 13 12 13 15 18 17 16 17 17 16 17
18 19 17 21 22 21 21 21 21 21 20 19 16 14 13 12 13 13 14 14 13 13 9 13 13 12 10 9 9 13 13 11 8 9 12 13 16 15 15 16 15 15 17
17 18 21 24 24 23 22 24 23 22 20 17 15 13 12 12 15 15 15 15 15 11 8 14 13 12 8 8 9 14 10 8 9 10 9 12 15 14 14 15 15 16 16
18 20 23 25 27 28 24 26 25 24 22 16 13 12 13 16 14 17 17 18 17 12 11 15 15 13 13 10 13 9 10 10 10 11 12 12 13 12 14 14 15 16 14
19 22 23 24 28 28 28 29 26 27 23 20 17 13 17 14 18 19 21 22 18 14 9 15 16 14 11 13 6 7 10 11 13 13 12 14 17 16 15 15 16 14 17
19 26 24 27 26 28 28 29 27 28 25 22 21 21 20 21 18 17 19 23 18 16 14 17 17 14 11 11 9 9 8 9 13 12 10 18 20 18 16 14 15 14 19
23 25 29 28 29 28 30 31 28 29 29 25 25 24 22 20 20 25 21 23 19 18 18 18 18 15 13 11 10 10 11 10 8 8 15 17 20 19 16 15 16 15 18
23 26 29 29 29 29 29 31 32 33 33 29 26 26 26 23 23 27 22 23 25 21 19 18 15 16 14 12 12 11 10 7 8 10 17 20 20 17 14 14 16 16 19
25 25 27 30 30 33 34 32 33 33 35 30 27 28 29 26 21 23 25 25 26 26 20 19 16 18 16 15 13 11 13 8 5 8 17 20 19 17 16 15 16 18 19
27 30 29 31 34 33 34 33 32 33 35 34 28 29 30 30 27 26 28 26 26 27 23 21 19 17 18 16 15 12 11 8 8 16 23 23 19 17 16 15 18 16 18
27 29 29 30 33 36 34 28 30 29 31 32 29 28 30 31 30 28 32 27 26 30 25 26 24 18 17 17 17 16 11 11 12 11 18 19 18 18 13 17 18 20 18
20 8 15 26 30 33 33 29 27 30 32 33 33 32 31 32 32 30 32 32 30 33 31 26 25 22 20 20 20 12 9 10 11 8 14 19 16 17 15 18 19 20 19
34 32 26 16 17 30 34 30 27 30 31 38 37 36 34 35 35 33 31 31 34 32 32 27 28 24 20 24 15 14 2 3 10 11 10 16 16 19 17 15 18 17 19
41 39 37 32 27 22 27 30 26 26 26 29 34 36 36 35 37 38 34 32 36 35 33 32 30 31 22 26 22 10 3 4 6 11 14 15 15 16 16 19 15 16 18
39 39 39 39 35 29 23 29 32 28 27 29 29 35 40 37 35 38 35 34 35 34 34 34 32 33 28 25 25 21 8 5 3 2 13 19 17 19 18 21 20 18 18
36 37 37 39 38 34 29 32 30 28 29 25 29 33 39 41 35 37 34 35 35 35 33 34 32 35 31 26 27 21 15 8 8 4 3 8 17 20 19 23 21 23 22
33 34 34 34 36 36 33 35 33 33 30 29 30 29 34 37 42 38 35 35 35 35 34 35 34 34 31 29 32 25 24 11 7 5 3 10 16 17 21 19 21 25 23
Wind_Direction
145 162 166 159 151 152 158 155 151 150 148 143 141 136 133 128 122 118 112 104 104 101 96 96 96 97 100 99 99 99 97 100 101 104 102 100 97 96 94 92 91 87 85
152 164 167 161 153 152 158 156 154 155 153 150 148 139 137 132 128 123 117 109 107 104 100 96 96 97 97 103 102 103 104 102 101 101 98 96 101 100 99 95 92 87 83
149 164 168 163 156 154 160 160 158 158 156 154 151 147 142 137 133 131 124 116 111 110 106 100 99 102 103 99 102 108 108 106 97 90 92 99 100 102 99 95 91 87 83
147 166 167 166 160 158 161 165 164 160 160 159 155 155 148 145 142 136 131 128 121 117 115 112 110 106 109 109 112 115 114 110 104 99 90 100 102 102 100 94 90 86 84
148 160 172 170 166 162 162 167 167 164 162 162 160 161 156 155 150 143 142 139 134 127 123 116 114 113 109 109 119 121 106 84 101 114 117 113 110 106 100 96 92 86 84
151 160 178 174 174 168 165 166 168 165 165 165 165 161 163 162 155 155 151 143 140 131 126 121 121 119 113 113 119 121 95 88 99 120 117 119 112 105 99 95 93 90 89
155 169 178 175 175 174 173 171 170 169 169 168 168 169 169 169 162 160 153 145 141 135 128 126 127 126 124 120 124 113 88 95 116 108 112 119 114 105 101 97 95 94 90
164 169 172 180 178 179 178 176 175 176 173 172 173 175 174 171 167 160 156 148 141 135 130 130 129 129 134 136 133 122 102 101 114 110 117 118 116 107 102 99 100 99 94
171 169 175 179 183 181 177 181 179 176 171 165 156 152 153 159 158 157 158 150 146 142 137 140 136 134 136 140 150 142 106 109 110 104 119 122 114 107 103 102 107 104 103
183 167 177 181 183 183 182 182 181 178 169 163 160 157 152 152 155 154 158 159 151 142 132 146 143 134 133 143 151 157 119 116 118 117 122 123 116 110 107 109 109 110 110
164 174 179 184 185 184 185 182 181 178 173 171 171 171 172 177 175 176 172 167 160 148 132 155 153 143 134 132 149 158 145 100 134 135 134 132 119 115 115 115 115 116 119
176 183 187 189 187 183 183 186 183 180 178 178 182 190 189 193 183 180 171 172 162 160 148 164 163 150 138 126 141 150 146 127 149 165 149 141 125 122 122 118 118 123 123
225 205 201 199 191 184 179 186 186 184 181 177 188 197 173 192 180 174 178 174 169 176 163 170 167 161 157 127 133 136 144 165 165 165 156 152 133 133 129 124 127 129 132
238 224 215 205 194 188 185 188 181 185 188 184 187 192 177 166 162 172 179 176 175 175 172 172 173 172 178 172 159 176 175 170 181 167 164 170 154 146 136 131 133 136 135
237 233 226 215 204 196 189 184 186 185 188 187 187 184 196 190 184 174 188 185 193 184 181 175 179 179 182 166 174 179 169 173 158 157 170 165 163 149 141 139 142 143 132
234 242 229 221 214 205 193 190 188 188 187 186 188 189 198 196 196 193 196 196 197 192 187 182 195 185 174 179 165 175 170 172 155 148 163 163 162 154 147 148 150 153 137
232 241 240 229 220 210 198 197 191 191 190 187 193 194 197 194 198 194 197 189 189 190 182 183 186 175 179 168 167 171 184 172 176 175 173 168 161 155 155 155 159 162 144
231 229 245 234 225 216 210 194 194 194 196 194 196 192 198 195 200 198 192 193 184 184 175 185 186 175 179 174 170 161 163 168 156 169 176 172 161 162 161 162 163 161 149
230 225 229 240 228 221 214 201 199 199 202 200 195 195 197 194 191 196 191 192 188 183 176 183 184 186 180 173 172 173 168 163 154 151 154 157 164 170 171 163 172 170 158
234 224 225 231 233 223 212 204 201 202 207 202 197 196 198 195 194 195 193 190 194 188 181 178 185 186 180 180 173 169 166 170 171 168 174 169 173 172 175 177 169 166 166
356 307 239 228 232 223 213 210 202 196 200 202 198 198 197 196 196 194 195 199 197 188 183 176 180 189 188 181 164 151 153 190 174 152 192 180 179 173 183 184 176 177 180
354 355 349 335 283 237 222 207 207 202 200 206 204 202 199 197 197 196 191 194 191 185 184 183 181 191 180 185 163 148 135 206 212 198 171 188 185 188 186 186 191 191 199
347 347 342 339 332 326 237 217 213 203 202 199 202 206 203 199 199 198 196 190 192 188 184 188 187 192 185 180 184 162 143 201 155 205 205 201 194 187 192 189 199 198 201
338 340 340 336 331 326 311 218 213 207 208 209 203 200 198 195 198 197 199 195 191 190 190 190 193 196 190 182 185 197 186 160 158 164 208 200 196 202 197 200 204 199 195
339 337 336 331 321 320 309 315 224 212 214 210 199 202 203 200 192 198 200 198 192 191 191 191 192 194 195 188 198 197 202 190 188 147 157 179 203 207 207 209 205 210 207
340 338 334 329 322 315 312 303 300 221 212 206 200 201 201 197 198 195 200 203 197 194 194 195 195 194 195 198 204 204 195 183 180 155 116 173 186 208 214 210 219 221 223